Simultaneous Nadir Overpasses (SNOs) Predictions

Prediction of SNOs between METOP-B and NOAA-19 Satellite Orbit:

Table of predicted SNOs for the next 14.0 days since TLE Epoch: 5/18/2018
Index Date (METOP-B) Time (METOP-B) Lat,Lon (METOP-B) SZA (METOP-B ) Date (NOAA-19) Time (NOAA-19) Lat,Lon (NOAA-19) SZA (NOAA-19 ) Distance(km) Time Diff (sec)
1 05/26/2018 19:07:48 -78.35, 82.71 122.73 05/26/2018 19:06:36 -78.31, 82.75 122.77 3.69 72
2 05/26/2018 19:58:28 78.33,-110.04 57.25 05/26/2018 19:57:33 78.33,-110.11 57.24 1.51 55
3 05/26/2018 20:49:10 -78.33, 57.27 122.76 05/26/2018 20:48:37 -78.31, 57.29 122.79 2.35 33
4 05/26/2018 21:39:50 78.31,-135.48 57.22 05/26/2018 21:39:34 78.33,-135.57 57.23 2.51 16
5 05/26/2018 22:30:32 -78.31, 31.83 122.80 05/26/2018 22:30:38 -78.30, 31.83 122.80 1.03 6
6 05/26/2018 23:21:12 78.29,-160.92 57.19 05/26/2018 23:21:34 78.28,-160.80 57.18 2.97 22
7 05/27/2018 00:11:54 -78.29, 6.39 122.83 05/27/2018 00:12:39 -78.29, 6.37 122.82 0.51 45
8 05/27/2018 01:02:34 78.28, 173.64 57.15 05/27/2018 01:03:35 78.28, 173.74 57.17 2.21 61




NCC Satellite Simultaneous Nadir Overpasses (SNOs) Prediction Service
